sat.trackr.live / text

‹ back to catalog

KUIPER-00608

NORAD 69291 · 2026-118AA

PAYLOAD ACTIVE UNKNOWN

§ Identity

Operator
Country
US
Launch date
2026-05-29
Launch site
AFETR
Launch vehicle
Mass (kg)
RCS (m²)

External: N2YO · Heavens-Above · Gunter

§ Orbital elements

Epoch: 2026-09-19T21:55:16.152096Z

Period
97.30 min
Inclination
51.9017°
Eccentricity
0.0001035
Mean motion
14.79930746 rev/d
Perigee alt
628.8 km
Apogee alt
630.3 km
Semi-major
7,007.7 km
B*
-1.1515e-4
RAAN
329.1554°
Arg perigee
76.0589°
Mean anomaly
284.0488°
Rev number
1,836

§ Raw data

KUIPER-006081 69291U 26118AA  26262.91338139 -.00001099  00000+0 -11515-3 0  99962 69291  51.9017 329.1554 0001035  76.0589 284.0488 14.79930746 18367

JSON: /api/v1/satellites/69291 · /tle

For live sub-satellite position, see the globe view (requires WebGL).

§ Visibility from observer

Set your observer location to see the next 7 days of passes ≥ 10°. The values pass through the URL so the page stays shareable.

No JS? Fill the form by hand. The geolocation button needs JavaScript.